Time,TemperatureF,DewpointF,PressureIn,WindDirection,WindDirectionDegrees,WindSpeedMPH,WindSpeedGustMPH,Humidity,HourlyPrecipIn,Conditions,Clouds,dailyrainin,SoftwareType,DateUTC
2013-03-04 00:00:00,46.9,47.0,30.03,East,89,9.0,13.0,99,0.00,,,0.00,,2013-03-04 08:00:00,
2013-03-04 00:10:00,47.2,47.0,30.04,East,89,5.0,10.0,99,0.00,,,0.00,,2013-03-04 08:10:00,
2013-03-04 00:20:00,47.3,47.0,30.04,East,92,0.0,6.0,99,0.00,,,0.00,,2013-03-04 08:20:00,
2013-03-04 00:30:00,47.4,47.0,30.05,NNE,24,5.0,5.0,99,0.00,,,0.00,,2013-03-04 08:30:00,
2013-03-04 00:40:00,47.5,47.0,30.05,WNW,302,4.0,7.0,99,0.00,,,0.00,,2013-03-04 08:40:00,
2013-03-04 00:50:00,47.0,47.0,30.05,West,274,8.0,8.0,99,0.00,,,0.00,,2013-03-04 08:50:00,
2013-03-04 01:00:00,46.9,47.0,30.05,West,272,7.0,10.0,99,0.00,,,0.00,,2013-03-04 09:00:00,
2013-03-04 01:10:00,47.0,47.0,30.06,WNW,289,4.0,8.0,99,0.00,,,0.00,,2013-03-04 09:10:00,
2013-03-04 01:20:00,46.9,47.0,30.05,West,269,3.0,7.0,99,0.00,,,0.00,,2013-03-04 09:20:00,
2013-03-04 01:30:00,46.9,47.0,30.06,West,269,3.0,4.0,99,0.00,,,0.00,,2013-03-04 09:30:00,
2013-03-04 01:40:00,46.9,47.0,30.06,West,269,3.0,4.0,99,0.00,,,0.00,,2013-03-04 09:40:00,
2013-03-04 01:50:00,46.8,47.0,30.06,West,269,1.0,5.0,99,0.00,,,0.00,,2013-03-04 09:50:00,
2013-03-04 02:00:00,46.7,46.0,30.06,West,269,0.0,2.0,99,0.00,,,0.00,,2013-03-04 10:00:00,
2013-03-04 02:10:00,46.4,46.0,30.06,West,269,2.0,2.0,99,0.00,,,0.00,,2013-03-04 10:10:00,
2013-03-04 02:20:00,46.6,46.0,30.06,WNW,293,3.0,4.0,99,0.00,,,0.00,,2013-03-04 10:20:00,
2013-03-04 02:30:00,46.9,47.0,30.06,NW,313,5.0,5.0,99,0.00,,,0.00,,2013-03-04 10:30:00,
2013-03-04 02:40:00,46.9,47.0,30.06,NW,313,2.0,4.0,99,0.00,,,0.00,,2013-03-04 10:40:00,
2013-03-04 02:50:00,46.8,47.0,30.06,NW,313,1.0,4.0,99,0.00,,,0.00,,2013-03-04 10:50:00,
2013-03-04 03:00:00,46.9,47.0,30.06,NW,313,0.0,2.0,99,0.00,,,0.00,,2013-03-04 11:00:00,
2013-03-04 03:10:00,46.9,47.0,30.06,NW,313,0.0,2.0,99,0.00,,,0.00,,2013-03-04 11:10:00,
2013-03-04 03:20:00,46.9,47.0,30.06,NW,313,0.0,0.0,99,0.00,,,0.00,,2013-03-04 11:20:00,
2013-03-04 03:30:00,46.9,47.0,30.06,NW,313,0.0,3.0,99,0.00,,,0.00,,2013-03-04 11:30:00,
2013-03-04 03:40:00,46.8,47.0,30.05,NW,313,0.0,4.0,99,0.00,,,0.00,,2013-03-04 11:40:00,
2013-03-04 03:50:00,46.8,47.0,30.05,South,180,0.0,2.0,99,0.00,,,0.00,,2013-03-04 11:50:00,
2013-03-04 04:00:00,46.8,47.0,30.05,South,180,1.0,4.0,99,0.00,,,0.00,,2013-03-04 12:00:00,
2013-03-04 04:10:00,46.7,46.0,30.05,SSE,148,0.0,4.0,99,0.00,,,0.00,,2013-03-04 12:10:00,
2013-03-04 04:20:00,46.6,46.0,30.06,SSE,155,1.0,4.0,99,0.00,,,0.00,,2013-03-04 12:20:00,
2013-03-04 04:30:00,46.6,46.0,30.06,SSE,155,3.0,4.0,99,0.00,,,0.00,,2013-03-04 12:30:00,
2013-03-04 04:40:00,46.5,46.0,30.06,SW,229,5.0,7.0,99,0.00,,,0.00,,2013-03-04 12:40:00,
2013-03-04 04:50:00,46.4,46.0,30.06,WSW,243,0.0,6.0,99,0.00,,,0.00,,2013-03-04 12:50:00,
2013-03-04 05:00:00,46.3,46.0,30.06,WSW,243,0.0,2.0,99,0.00,,,0.00,,2013-03-04 13:00:00,
2013-03-04 05:10:00,46.2,46.0,30.06,WSW,243,0.0,2.0,99,0.00,,,0.00,,2013-03-04 13:10:00,
2013-03-04 05:20:00,46.3,46.0,30.06,WSW,243,0.0,1.0,99,0.00,,,0.00,,2013-03-04 13:20:00,
2013-03-04 05:30:00,46.3,46.0,30.07,WSW,244,1.0,5.0,99,0.00,,,0.00,,2013-03-04 13:30:00,
2013-03-04 05:40:00,46.2,46.0,30.07,West,277,2.0,6.0,99,0.00,,,0.00,,2013-03-04 13:40:00,
2013-03-04 05:50:00,46.1,46.0,30.07,WNW,288,1.0,6.0,99,0.00,,,0.00,,2013-03-04 13:50:00,
2013-03-04 06:00:00,46.2,46.0,30.07,NW,315,4.0,7.0,99,0.00,,,0.00,,2013-03-04 14:00:00,
2013-03-04 06:10:00,46.1,46.0,30.07,NW,311,4.0,5.0,99,0.00,,,0.00,,2013-03-04 14:10:00,
2013-03-04 06:20:00,46.0,46.0,30.07,WNW,302,3.0,8.0,99,0.00,,,0.00,,2013-03-04 14:20:00,
2013-03-04 06:30:00,46.0,46.0,30.07,WNW,302,1.0,5.0,99,0.00,,,0.00,,2013-03-04 14:30:00,
2013-03-04 06:40:00,45.8,46.0,30.07,WNW,298,5.0,8.0,99,0.00,,,0.00,,2013-03-04 14:40:00,
2013-03-04 06:50:00,45.8,46.0,30.08,WNW,284,3.0,6.0,99,0.00,,,0.00,,2013-03-04 14:50:00,
2013-03-04 07:00:00,45.9,46.0,30.08,WNW,284,2.0,5.0,99,0.00,,,0.00,,2013-03-04 15:00:00,
2013-03-04 07:10:00,46.0,46.0,30.08,NNW,344,2.0,4.0,99,0.00,,,0.00,,2013-03-04 15:10:00,
2013-03-04 07:20:00,46.0,46.0,30.08,North,355,3.0,3.0,99,0.00,,,0.00,,2013-03-04 15:20:00,
2013-03-04 07:30:00,46.1,46.0,30.08,ENE,61,1.0,5.0,99,0.00,,,0.00,,2013-03-04 15:30:00,
2013-03-04 07:40:00,46.1,46.0,30.08,ENE,61,0.0,3.0,99,0.00,,,0.00,,2013-03-04 15:40:00,
2013-03-04 07:50:00,46.1,46.0,30.08,ENE,61,2.0,3.0,99,0.00,,,0.00,,2013-03-04 15:50:00,
2013-03-04 08:00:00,46.2,46.0,30.08,ENE,74,0.0,4.0,98,0.00,,,0.00,,2013-03-04 16:00:00,
2013-03-04 08:10:00,46.3,46.0,30.09,East,80,5.0,5.0,98,0.00,,,0.00,,2013-03-04 16:10:00,
2013-03-04 08:20:00,46.4,46.0,30.09,SSW,201,3.0,7.0,98,0.00,,,0.00,,2013-03-04 16:20:00,
2013-03-04 08:30:00,46.5,46.0,30.09,South,176,1.0,7.0,98,0.00,,,0.00,,2013-03-04 16:30:00,
2013-03-04 08:40:00,46.5,46.0,30.09,South,182,0.0,6.0,98,0.00,,,0.00,,2013-03-04 16:40:00,
2013-03-04 08:50:00,46.6,46.0,30.09,East,98,2.0,6.0,98,0.00,,,0.00,,2013-03-04 16:50:00,
2013-03-04 09:00:00,46.9,46.0,30.09,East,98,3.0,3.0,98,0.00,,,0.00,,2013-03-04 17:00:00,
2013-03-04 09:10:00,47.7,47.0,30.09,East,91,0.0,6.0,98,0.00,,,0.00,,2013-03-04 17:10:00,
2013-03-04 09:20:00,47.4,46.0,30.10,SW,229,8.0,9.0,96,0.00,,,0.00,,2013-03-04 17:20:00,
2013-03-04 09:30:00,47.4,46.0,30.10,WSW,244,7.0,9.0,96,0.00,,,0.00,,2013-03-04 17:30:00,
2013-03-04 09:40:00,47.7,46.0,30.10,South,181,0.0,10.0,95,0.00,,,0.00,,2013-03-04 17:40:00,
2013-03-04 09:50:00,48.5,47.0,30.10,WSW,251,5.0,10.0,94,0.00,,,0.00,,2013-03-04 17:50:00,
2013-03-04 10:00:00,49.5,48.0,30.10,West,271,8.0,9.0,94,0.00,,,0.00,,2013-03-04 18:00:00,
2013-03-04 10:10:00,49.9,48.0,30.10,West,259,10.0,11.0,92,0.00,,,0.00,,2013-03-04 18:10:00,
2013-03-04 10:20:00,50.3,48.0,30.10,WNW,287,5.0,8.0,92,0.00,,,0.00,,2013-03-04 18:20:00,
2013-03-04 10:30:00,52.2,50.0,30.09,NE,45,5.0,12.0,91,0.00,,,0.00,,2013-03-04 18:30:00,
2013-03-04 10:40:00,52.6,49.0,30.09,NE,55,2.0,10.0,89,0.00,,,0.00,,2013-03-04 18:40:00,
2013-03-04 10:50:00,52.4,49.0,30.09,WSW,257,10.0,11.0,87,0.00,,,0.00,,2013-03-04 18:50:00,
2013-03-04 11:00:00,50.9,48.0,30.09,WSW,256,12.0,14.0,90,0.00,,,0.00,,2013-03-04 19:00:00,
2013-03-04 11:10:00,49.4,47.0,30.09,WSW,257,12.0,18.0,91,0.00,,,0.00,,2013-03-04 19:10:00,
2013-03-04 11:20:00,50.2,47.0,30.09,WSW,255,20.0,20.0,90,0.00,,,0.00,,2013-03-04 19:20:00,
2013-03-04 11:30:00,50.5,48.0,30.09,West,278,18.0,19.0,91,0.00,,,0.00,,2013-03-04 19:30:00,
2013-03-04 11:40:00,50.1,47.0,30.10,West,271,19.0,22.0,89,0.00,,,0.00,,2013-03-04 19:40:00,
2013-03-04 11:50:00,50.0,47.0,30.10,WNW,282,19.0,23.0,90,0.00,,,0.00,,2013-03-04 19:50:00,
2013-03-04 12:00:00,50.3,47.0,30.09,WNW,290,15.0,20.0,90,0.00,,,0.00,,2013-03-04 20:00:00,
2013-03-04 12:10:00,50.5,47.0,30.09,West,276,13.0,20.0,89,0.00,,,0.00,,2013-03-04 20:10:00,
2013-03-04 12:20:00,49.9,47.0,30.09,West,273,20.0,21.0,90,0.00,,,0.00,,2013-03-04 20:20:00,
2013-03-04 12:30:00,50.4,48.0,30.09,WNW,290,17.0,24.0,90,0.00,,,0.00,,2013-03-04 20:30:00,
2013-03-04 12:40:00,50.0,47.0,30.08,West,273,19.0,24.0,91,0.00,,,0.00,,2013-03-04 20:40:00,
2013-03-04 12:50:00,50.8,48.0,30.08,West,280,17.0,25.0,91,0.00,,,0.00,,2013-03-04 20:50:00,
2013-03-04 13:00:00,50.9,48.0,30.08,West,278,23.0,26.0,90,0.00,,,0.00,,2013-03-04 21:00:00,
2013-03-04 13:10:00,51.0,48.0,30.07,WNW,288,19.0,26.0,90,0.00,,,0.00,,2013-03-04 21:10:00,
2013-03-04 13:20:00,50.7,48.0,30.07,WNW,296,18.0,23.0,89,0.00,,,0.00,,2013-03-04 21:20:00,
2013-03-04 13:30:00,51.3,48.0,30.06,NW,313,11.0,19.0,89,0.00,,,0.00,,2013-03-04 21:30:00,
2013-03-04 13:40:00,52.6,49.0,30.05,WNW,287,14.0,18.0,88,0.00,,,0.00,,2013-03-04 21:40:00,
2013-03-04 13:50:00,52.8,49.0,30.05,West,275,15.0,17.0,87,0.00,,,0.00,,2013-03-04 21:50:00,
2013-03-04 14:00:00,52.6,49.0,30.04,WNW,296,9.0,18.0,86,0.00,,,0.00,,2013-03-04 22:00:00,
2013-03-04 14:10:00,53.7,49.0,30.03,West,275,13.0,13.0,85,0.00,,,0.00,,2013-03-04 22:10:00,
2013-03-04 14:20:00,51.5,48.0,30.03,West,271,18.0,20.0,88,0.00,,,0.00,,2013-03-04 22:20:00,
2013-03-04 14:30:00,51.3,48.0,30.03,West,280,20.0,21.0,88,0.00,,,0.00,,2013-03-04 22:30:00,
2013-03-04 14:40:00,51.5,48.0,30.03,West,281,23.0,25.0,88,0.00,,,0.00,,2013-03-04 22:40:00,
2013-03-04 14:50:00,50.3,47.0,30.03,West,277,23.0,25.0,90,0.00,,,0.00,,2013-03-04 22:50:00,
2013-03-04 15:00:00,50.8,48.0,30.03,West,268,24.0,27.0,89,0.00,,,0.00,,2013-03-04 23:00:00,
2013-03-04 15:10:00,50.7,48.0,30.03,West,271,18.0,27.0,90,0.00,,,0.00,,2013-03-04 23:10:00,
2013-03-04 15:20:00,51.3,48.0,30.03,WNW,298,14.0,26.0,89,0.00,,,0.00,,2013-03-04 23:20:00,
2013-03-04 15:30:00,50.8,48.0,30.02,WNW,298,22.0,27.0,90,0.00,,,0.00,,2013-03-04 23:30:00,
2013-03-04 15:40:00,51.2,48.0,30.02,WNW,286,24.0,26.0,90,0.00,,,0.00,,2013-03-04 23:40:00,
2013-03-04 15:50:00,51.2,48.0,30.02,West,267,20.0,24.0,89,0.00,,,0.00,,2013-03-04 23:50:00,
2013-03-04 16:00:00,50.6,47.0,30.02,West,270,22.0,25.0,89,0.00,,,0.00,,2013-03-05 00:00:00,
2013-03-04 16:10:00,50.9,48.0,30.01,West,277,15.0,23.0,90,0.00,,,0.00,,2013-03-05 00:10:00,
2013-03-04 16:20:00,51.0,48.0,30.01,WNW,288,11.0,21.0,89,0.00,,,0.00,,2013-03-05 00:20:00,
2013-03-04 16:30:00,52.0,49.0,30.01,West,268,12.0,16.0,89,0.00,,,0.00,,2013-03-05 00:30:00,
2013-03-04 16:40:00,51.5,48.0,30.01,West,281,11.0,18.0,88,0.00,,,0.00,,2013-03-05 00:40:00,
2013-03-04 16:50:00,49.3,47.0,30.01,West,277,23.0,24.0,91,0.00,,,0.00,,2013-03-05 00:50:00,
2013-03-04 17:00:00,48.6,47.0,30.02,West,279,17.0,24.0,94,0.00,,,0.00,,2013-03-05 01:00:00,
2013-03-04 17:10:00,48.5,47.0,30.02,West,273,17.0,25.0,94,0.00,,,0.00,,2013-03-05 01:10:00,
2013-03-04 17:20:00,48.2,47.0,30.02,West,278,18.0,25.0,95,0.00,,,0.00,,2013-03-05 01:20:00,
2013-03-04 17:30:00,48.0,47.0,30.02,WNW,284,19.0,22.0,95,0.00,,,0.00,,2013-03-05 01:30:00,
2013-03-04 17:40:00,48.1,47.0,30.02,WNW,282,11.0,18.0,95,0.00,,,0.00,,2013-03-05 01:40:00,
2013-03-04 17:50:00,48.1,47.0,30.02,NW,309,7.0,15.0,95,0.00,,,0.00,,2013-03-05 01:50:00,
2013-03-04 18:00:00,48.0,47.0,30.02,NW,321,3.0,7.0,95,0.00,,,0.00,,2013-03-05 02:00:00,
2013-03-04 18:10:00,48.0,47.0,30.02,NW,321,1.0,5.0,95,0.00,,,0.00,,2013-03-05 02:10:00,
2013-03-04 18:20:00,48.4,47.0,30.02,NE,49,4.0,5.0,96,0.00,,,0.00,,2013-03-05 02:20:00,
2013-03-04 18:30:00,48.8,47.0,30.02,East,92,3.0,6.0,94,0.00,,,0.00,,2013-03-05 02:30:00,
2013-03-04 18:40:00,48.8,47.0,30.02,ESE,119,7.0,7.0,94,0.00,,,0.00,,2013-03-05 02:40:00,
2013-03-04 18:50:00,48.9,47.0,30.02,SE,134,5.0,7.0,94,0.00,,,0.00,,2013-03-05 02:50:00,
2013-03-04 19:00:00,48.1,46.0,30.02,SW,228,5.0,8.0,94,0.00,,,0.00,,2013-03-05 03:00:00,
2013-03-04 19:10:00,47.8,46.0,30.02,WSW,242,6.0,7.0,95,0.00,,,0.00,,2013-03-05 03:10:00,
2013-03-04 19:20:00,47.5,46.0,30.02,WSW,238,5.0,6.0,96,0.00,,,0.00,,2013-03-05 03:20:00,
2013-03-04 19:30:00,47.4,46.0,30.02,West,271,2.0,6.0,96,0.00,,,0.00,,2013-03-05 03:30:00,
2013-03-04 19:40:00,47.0,46.0,30.02,WNW,286,6.0,8.0,96,0.00,,,0.00,,2013-03-05 03:40:00,
2013-03-04 19:50:00,46.8,46.0,30.02,WNW,282,4.0,8.0,96,0.00,,,0.00,,2013-03-05 03:50:00,
2013-03-04 20:00:00,46.8,46.0,30.02,West,277,3.0,8.0,97,0.00,,,0.00,,2013-03-05 04:00:00,
2013-03-04 20:10:00,46.7,46.0,30.02,West,275,0.0,8.0,97,0.00,,,0.00,,2013-03-05 04:10:00,
2013-03-04 20:20:00,46.9,46.0,30.03,West,273,2.0,4.0,97,0.00,,,0.00,,2013-03-05 04:20:00,
2013-03-04 20:30:00,46.9,46.0,30.04,West,273,2.0,2.0,97,0.00,,,0.00,,2013-03-05 04:30:00,
2013-03-04 20:40:00,46.3,46.0,30.04,SE,146,3.0,4.0,97,0.00,,,0.00,,2013-03-05 04:40:00,
2013-03-04 20:50:00,46.4,46.0,30.04,East,101,5.0,7.0,97,0.00,,,0.00,,2013-03-05 04:50:00,
2013-03-04 21:00:00,46.0,45.0,30.04,ESE,109,5.0,7.0,97,0.00,,,0.00,,2013-03-05 05:00:00,
2013-03-04 21:10:00,46.2,45.0,30.05,ESE,113,7.0,8.0,97,0.00,,,0.00,,2013-03-05 05:10:00,
2013-03-04 21:20:00,46.6,46.0,30.05,SE,131,8.0,10.0,98,0.00,,,0.00,,2013-03-05 05:20:00,
2013-03-04 21:30:00,47.0,46.0,30.05,ESE,122,8.0,10.0,98,0.00,,,0.00,,2013-03-05 05:30:00,
2013-03-04 21:40:00,46.9,46.0,30.06,ESE,109,7.0,10.0,98,0.00,,,0.00,,2013-03-05 05:40:00,
2013-03-04 21:50:00,47.0,46.0,30.06,ESE,106,5.0,8.0,98,0.00,,,0.00,,2013-03-05 05:50:00,
2013-03-04 22:00:00,47.0,46.0,30.06,ESE,106,2.0,5.0,98,0.00,,,0.00,,2013-03-05 06:00:00,
2013-03-04 22:10:00,47.2,47.0,30.06,ESE,115,7.0,7.0,98,0.00,,,0.00,,2013-03-05 06:10:00,
2013-03-04 22:20:00,47.2,47.0,30.06,ESE,117,5.0,8.0,98,0.00,,,0.00,,2013-03-05 06:20:00,
2013-03-04 22:30:00,47.3,47.0,30.06,ESE,122,8.0,9.0,98,0.00,,,0.00,,2013-03-05 06:30:00,
2013-03-04 22:40:00,47.3,47.0,30.06,ESE,112,7.0,10.0,98,0.00,,,0.00,,2013-03-05 06:40:00,
2013-03-04 22:50:00,47.2,47.0,30.06,ESE,119,8.0,10.0,98,0.00,,,0.00,,2013-03-05 06:50:00,
2013-03-04 23:00:00,47.0,46.0,30.06,ESE,123,5.0,10.0,98,0.00,,,0.00,,2013-03-05 07:00:00,
2013-03-04 23:10:00,47.0,46.0,30.06,SE,126,7.0,10.0,98,0.00,,,0.00,,2013-03-05 07:10:00,
2013-03-04 23:20:00,47.0,46.0,30.06,SE,130,4.0,7.0,98,0.00,,,0.00,,2013-03-05 07:20:00,
2013-03-04 23:30:00,47.0,46.0,30.06,SE,142,0.0,4.0,98,0.00,,,0.00,,2013-03-05 07:30:00,
2013-03-04 23:40:00,47.1,47.0,30.06,SSE,147,5.0,6.0,98,0.00,,,0.00,,2013-03-05 07:40:00,
2013-03-04 23:50:00,47.2,46.0,30.06,SSE,153,4.0,6.0,97,0.00,,,0.00,,2013-03-05 07:50:00,